Location: Hurstbourne Priors
(51.2000°N, 1.3667°W)
Time: 20:52:53
(UTC+00:00)

Altair - Pass Details

Date: 17 April 2021
Orbit: 1501 x 1683 km, 47.2° (Epoch: 13 May)

Event Time Altitude Azimuth Distance (km) Brightness Sun altitude
Rises 04:12:28 0° 173° (S) 4,873 9.9 -8.5°
Reaches altitude 10° 04:18:08 10° 148° (SSE) 3,854 9.7 -7.7°
Maximum altitude 04:21:53 13° 125° (SE) 3,605 9.8 -7.2°
Drops below altitude 10° 04:25:36 10° 101° (ESE) 3,805 10.5 -6.7°
Sets 04:31:03 0° 77° (ENE) 4,751 12.2 -5.9°
